Location: Unspecified
(26.1220°N, 0.0000°E)
Time: 14:52:06
(UTC+00:00)

Envisat - Pass Details

Date: 24 May 2019
Orbit: 764 x 766 km, 98.1° (Epoch: 16 June)

Event Time Altitude Azimuth Distance (km) Brightness Sun altitude
Rises 19:34:25 0° 200° (SSW) 3,217 6.1 -11.0°
Reaches altitude 10° 19:37:16 10° 216° (SW) 2,295 5.5 -11.5°
Maximum altitude 19:40:59 21° 263° (W) 1,684 5.5 -12.2°
Drops below altitude 10° 19:44:43 10° 311° (NW) 2,302 6.9 -12.9°
Sets 19:47:36 0° 328° (NNW) 3,231 7.5 -13.5°
